Location: Savignano sul Rubicone
(44.0950°N, 12.4090°E)
Time: 08:10:50
(UTC+01:00)

N. Korean satellite - Pass Details

Date: 27 October 2019
Orbit: 456 x 506 km, 97.2° (Epoch: 21 November)

Event Time Altitude Azimuth Distance (km) Brightness Sun altitude
Rises 18:07:20 0° 202° (SSW) 2,470 10.6 -11.2°
Reaches altitude 10° 18:09:51 10° 222° (SW) 1,608 10.0 -11.7°
Maximum altitude 18:12:16 18° 267° (W) 1,216 9.8 -12.1°
Drops below altitude 10° 18:14:43 10° 312° (NW) 1,634 9.9 -12.5°
Sets 18:17:18 0° 332° (NNW) 2,527 10.5 -13.0°
